Location: Lake Almanor
(40.2485°N, 121.1442°W)
Time: 18:05:57
(UTC-08:00)

STARLINK-1095 - Pass Details

Date: 31 January 2020
Orbit: 348 x 351 km, 53.0° (Epoch: 17 February)

Event Time Altitude Azimuth Distance (km) Brightness Sun altitude
Rises 19:42:56 0° 296° (WNW) 2,166 7.6 -27.1°
Reaches altitude 10° 19:45:15 10° 279° (W) 1,319 6.5 -27.5°
Enters shadow 19:45:59 14° 268° (W) 1,107 6.1 -27.7°
